TimeCDT,TemperatureF,Dew PointF,Humidity,Sea Level PressureIn,VisibilityMPH,Wind Direction,Wind SpeedMPH,Gust SpeedMPH,PrecipitationIn,Events,Conditions,WindDirDegrees,DateUTC
12:53 AM,82.9,68.0,60,29.97,10.0,South,6.9,-,N/A,,Clear,170,2013-08-29 05:53:00
1:53 AM,81.0,68.0,65,29.97,10.0,SSE,6.9,-,N/A,,Clear,150,2013-08-29 06:53:00
2:53 AM,82.0,68.0,62,29.97,10.0,Variable,5.8,-,N/A,,Clear,0,2013-08-29 07:53:00
3:53 AM,80.1,68.0,67,29.97,10.0,South,4.6,-,N/A,,Clear,180,2013-08-29 08:53:00
4:53 AM,77.0,68.0,74,29.98,10.0,SSE,8.1,-,N/A,,Clear,150,2013-08-29 09:53:00
5:53 AM,75.9,68.0,76,29.99,10.0,SSE,6.9,-,N/A,,Clear,150,2013-08-29 10:53:00
6:53 AM,75.0,68.0,79,29.99,10.0,SSE,5.8,-,N/A,,Clear,150,2013-08-29 11:53:00
7:53 AM,77.0,68.0,74,30.00,10.0,South,3.5,-,N/A,,Clear,170,2013-08-29 12:53:00
8:53 AM,80.1,66.9,64,30.01,10.0,Calm,Calm,-,N/A,,Partly Cloudy,0,2013-08-29 13:53:00
9:53 AM,84.9,66.0,53,30.01,10.0,SSW,6.9,-,N/A,,Scattered Clouds,200,2013-08-29 14:53:00
10:53 AM,89.1,64.9,45,30.01,10.0,SSW,3.5,-,N/A,,Partly Cloudy,200,2013-08-29 15:53:00
11:53 AM,93.0,64.9,39,30.00,10.0,South,4.6,-,N/A,,Clear,190,2013-08-29 16:53:00
12:53 PM,96.1,63.0,33,29.98,10.0,Variable,6.9,-,N/A,,Clear,0,2013-08-29 17:53:00
1:53 PM,97.0,60.1,29,29.96,10.0,SSW,10.4,-,N/A,,Clear,210,2013-08-29 18:53:00
2:53 PM,97.0,61.0,30,29.95,10.0,South,8.1,17.3,N/A,,Partly Cloudy,190,2013-08-29 19:53:00
3:53 PM,97.0,64.0,34,29.93,10.0,Variable,4.6,-,N/A,,Partly Cloudy,0,2013-08-29 20:53:00
4:53 PM,97.0,63.0,32,29.92,10.0,SSE,13.8,18.4,N/A,,Clear,160,2013-08-29 21:53:00
5:53 PM,96.1,61.0,31,29.92,10.0,South,9.2,-,N/A,,Clear,180,2013-08-29 22:53:00
6:53 PM,93.0,63.0,37,29.93,10.0,South,9.2,-,N/A,,Clear,170,2013-08-29 23:53:00
7:53 PM,90.0,64.0,42,29.93,10.0,SSE,8.1,-,N/A,,Clear,150,2013-08-30 00:53:00
8:53 PM,86.0,66.0,51,29.93,10.0,SSE,9.2,-,N/A,,Clear,150,2013-08-30 01:53:00
9:53 PM,84.0,66.0,55,29.94,10.0,SSE,8.1,-,N/A,,Clear,150,2013-08-30 02:53:00
10:53 PM,84.0,64.9,53,29.93,10.0,SSE,8.1,-,N/A,,Clear,160,2013-08-30 03:53:00
11:53 PM,82.9,66.0,56,29.93,10.0,SSE,8.1,-,N/A,,Clear,160,2013-08-30 04:53:00